When you browse on this site, cookies collect data to enhance your experience and personalize the content and advertising you see.
Visit our Privacy Policy to learn more. By continuing to use the site, you agree to this use of cookies and data.
  • en Suisse
  • Liste des pays
  • À 7 jours
  • Température de l'eau
  • Carte satellitaire
  • Carte météo
  • Widgets météo
  • user-avatar
    Se connecter

    Météo par heure à Larnaka

    Ce jour, 21 Mars, Jeudi

    Heure Température Précipitation Vent Pression Humidité
    00:00 +16°C° 0 mm 2 m/s 762 mmHg 79%
    01:00 +16°C° 0 mm 2 m/s 762 mmHg 81%
    02:00 +15°C° 0 mm 2 m/s 761 mmHg 84%
    03:00 +15°C° 0 mm 2 m/s 761 mmHg 83%
    04:00 +15°C° 0 mm 2 m/s 761 mmHg 82%
    05:00 +15°C° 0 mm 2 m/s 761 mmHg 82%
    06:00 +16°C° 0 mm 2 m/s 761 mmHg 71%
    07:00 +18°C° 0 mm 2 m/s 761 mmHg 61%
    08:00 +21°C° 0 mm 1 m/s 761 mmHg 49%
    09:00 +22°C° 0 mm 1 m/s 761 mmHg 45%
    10:00 +23°C° 0 mm 2 m/s 762 mmHg 42%
    11:00 +24°C° 0 mm 2 m/s 762 mmHg 38%
    12:00 +24°C° 0 mm 2 m/s 762 mmHg 40%
    13:00 +24°C° 0 mm 2 m/s 762 mmHg 42%
    14:00 +24°C° 0 mm 3 m/s 762 mmHg 44%
    15:00 +24°C° 0 mm 3 m/s 761 mmHg 46%
    16:00 +22°C° 0 mm 3 m/s 761 mmHg 49%
    17:00 +22°C° 0 mm 3 m/s 761 mmHg 51%
    18:00 +20°C° 0 mm 3 m/s 761 mmHg 56%
    19:00 +18°C° 0 mm 2 m/s 761 mmHg 62%
    20:00 +17°C° 0 mm 2 m/s 762 mmHg 67%
    21:00 +17°C° 0 mm 2 m/s 762 mmHg 63%
    22:00 +17°C° 0 mm 2 m/s 762 mmHg 59%
    23:00 +17°C° 0 mm 2 m/s 762 mmHg 55%

    Demain, 22 Mars, Vendredi

    Heure Température Précipitation Vent Pression Humidité
    00:00 +17°C° 0 mm 2 m/s 762 mmHg 50%
    01:00 +16°C° 0 mm 2 m/s 762 mmHg 45%
    02:00 +16°C° 0 mm 3 m/s 762 mmHg 40%
    03:00 +16°C° 0 mm 2 m/s 762 mmHg 39%
    04:00 +16°C° 0 mm 2 m/s 762 mmHg 39%
    05:00 +15°C° 0 mm 2 m/s 762 mmHg 38%
    06:00 +17°C° 0 mm 2 m/s 762 mmHg 36%
    07:00 +19°C° 0 mm 2 m/s 762 mmHg 34%
    08:00 +21°C° 0 mm 2 m/s 762 mmHg 32%
    09:00 +23°C° 0 mm 2 m/s 763 mmHg 30%
    10:00 +24°C° 0 mm 2 m/s 763 mmHg 28%
    11:00 +25°C° 0 mm 2 m/s 763 mmHg 25%
    12:00 +25°C° 0 mm 2 m/s 762 mmHg 28%
    13:00 +25°C° 0 mm 2 m/s 762 mmHg 30%
    14:00 +25°C° 0 mm 3 m/s 762 mmHg 32%
    15:00 +24°C° 0 mm 2 m/s 762 mmHg 36%
    16:00 +23°C° 0 mm 2 m/s 761 mmHg 39%
    17:00 +21°C° 0 mm 2 m/s 761 mmHg 43%
    18:00 +20°C° 0 mm 2 m/s 761 mmHg 49%
    19:00 +18°C° 0 mm 2 m/s 762 mmHg 55%
    20:00 +16°C° 0 mm 2 m/s 762 mmHg 62%
    21:00 +16°C° 0 mm 2 m/s 762 mmHg 60%
    22:00 +16°C° 0 mm 2 m/s 762 mmHg 59%
    23:00 +16°C° 0 mm 3 m/s 762 mmHg 57%

    Après-demain, 23 Mars, Samedi

    Heure Température Précipitation Vent Pression Humidité
    00:00 +16°C° 0 mm 3 m/s 762 mmHg 52%
    01:00 +16°C° 0 mm 3 m/s 761 mmHg 47%
    02:00 +15°C° 0 mm 4 m/s 761 mmHg 42%
    03:00 +14°C° 0 mm 3 m/s 761 mmHg 40%
    04:00 +14°C° 0 mm 3 m/s 761 mmHg 37%
    05:00 +15°C° 0 mm 2 m/s 760 mmHg 34%
    06:00 +16°C° 0 mm 2 m/s 760 mmHg 31%
    07:00 +18°C° 0 mm 2 m/s 760 mmHg 28%
    08:00 +20°C° 0 mm 2 m/s 761 mmHg 24%
    09:00 +21°C° 0 mm 2 m/s 760 mmHg 25%
    10:00 +23°C° 0 mm 2 m/s 760 mmHg 25%
    11:00 +24°C° 0 mm 1 m/s 760 mmHg 25%
    12:00 +24°C° 0 mm 2 m/s 760 mmHg 26%
    13:00 +24°C° 0 mm 2 m/s 759 mmHg 27%
    14:00 +24°C° 0 mm 3 m/s 759 mmHg 28%
    15:00 +23°C° 0 mm 4 m/s 759 mmHg 32%
    16:00 +22°C° 0 mm 4 m/s 759 mmHg 35%
    17:00 +21°C° 0 mm 5 m/s 758 mmHg 39%
    18:00 +20°C° 0 mm 5 m/s 758 mmHg 44%
    19:00 +18°C° 0 mm 4 m/s 758 mmHg 48%
    20:00 +17°C° 0 mm 4 m/s 758 mmHg 53%
    21:00 +15°C° 0 mm 4 m/s 758 mmHg 50%
    22:00 +15°C° 0 mm 4 m/s 758 mmHg 46%
    23:00 +14°C° 0 mm 3 m/s 757 mmHg 42%

    24 Mars, Dimanche

    Heure Température Précipitation Vent Pression Humidité
    00:00 +14°C° 0 mm 3 m/s 757 mmHg 41%
    01:00 +14°C° 0 mm 3 m/s 756 mmHg 39%
    02:00 +13°C° 0 mm 3 m/s 756 mmHg 38%
    03:00 +13°C° 0 mm 3 m/s 756 mmHg 38%
    04:00 +14°C° 0 mm 2 m/s 755 mmHg 38%
    05:00 +13°C° 0 mm 2 m/s 755 mmHg 39%
    06:00 +15°C° 0 mm 2 m/s 755 mmHg 40%
    07:00 +17°C° 0 mm 3 m/s 755 mmHg 41%
    08:00 +18°C° 0 mm 3 m/s 755 mmHg 42%
    09:00 +18°C° 0 mm 4 m/s 755 mmHg 41%
    10:00 +17°C° 0 mm 5 m/s 755 mmHg 40%
    11:00 +17°C° 0 mm 5 m/s 755 mmHg 40%
    12:00 +17°C° 0.3 mm 6 m/s 755 mmHg 39%
    13:00 +17°C° 0.3 mm 6 m/s 755 mmHg 38%
    14:00 +17°C° 0.3 mm 6 m/s 754 mmHg 37%
    15:00 +17°C° 0.1 mm 6 m/s 754 mmHg 35%
    16:00 +17°C° 0.1 mm 6 m/s 754 mmHg 32%
    17:00 +17°C° 0.1 mm 7 m/s 754 mmHg 29%
    18:00 +15°C° 0 mm 7 m/s 754 mmHg 31%
    19:00 +13°C° 0 mm 8 m/s 755 mmHg 34%
    20:00 +12°C° 0 mm 9 m/s 755 mmHg 36%
    21:00 +11°C° 0 mm 9 m/s 755 mmHg 37%
    22:00 +11°C° 0 mm 10 m/s 755 mmHg 39%
    23:00 +9°C° 0 mm 10 m/s 755 mmHg 40%

    25 Mars, Lundi

    Heure Température Précipitation Vent Pression Humidité
    00:00 +9°C° 0 mm 10 m/s 755 mmHg 40%
    01:00 +10°C° 0 mm 9 m/s 755 mmHg 41%
    02:00 +8°C° 0 mm 9 m/s 755 mmHg 41%
    03:00 +8°C° 0 mm 10 m/s 755 mmHg 41%
    04:00 +8°C° 0 mm 10 m/s 755 mmHg 40%
    05:00 +7°C° 0 mm 11 m/s 755 mmHg 40%
    06:00 +8°C° 0 mm 11 m/s 755 mmHg 37%
    07:00 +9°C° 0 mm 12 m/s 756 mmHg 34%
    08:00 +10°C° 0 mm 12 m/s 756 mmHg 31%
    09:00 +12°C° 0 mm 10 m/s 756 mmHg 31%
    10:00 +13°C° 0 mm 8 m/s 756 mmHg 30%
    11:00 +15°C° 0 mm 6 m/s 756 mmHg 29%
    12:00 +15°C° 0 mm 5 m/s 756 mmHg 28%
    13:00 +17°C° 0 mm 4 m/s 756 mmHg 26%
    14:00 +17°C° 0 mm 3 m/s 756 mmHg 24%
    15:00 +17°C° 0 mm 4 m/s 756 mmHg 26%
    16:00 +16°C° 0 mm 5 m/s 756 mmHg 28%
    17:00 +16°C° 0 mm 5 m/s 756 mmHg 30%
    18:00 +14°C° 0 mm 5 m/s 756 mmHg 35%
    19:00 +13°C° 0 mm 5 m/s 757 mmHg 40%
    20:00 +10°C° 0 mm 5 m/s 757 mmHg 45%
    21:00 +10°C° 0 mm 5 m/s 757 mmHg 45%
    22:00 +10°C° 0 mm 5 m/s 757 mmHg 45%
    23:00 +10°C° 0 mm 6 m/s 757 mmHg 44%

    26 Mars, Mardi

    Heure Température Précipitation Vent Pression Humidité
    00:00 +10°C° 0 mm 6 m/s 757 mmHg 43%
    01:00 +10°C° 0 mm 6 m/s 757 mmHg 42%
    02:00 +10°C° 0 mm 6 m/s 757 mmHg 40%
    03:00 +9°C° 0 mm 6 m/s 757 mmHg 50%
    04:00 +9°C° 0 mm 6 m/s 757 mmHg 59%
    05:00 +9°C° 0 mm 6 m/s 757 mmHg 69%
    06:00 +12°C° 0 mm 5 m/s 757 mmHg 65%
    07:00 +14°C° 0 mm 5 m/s 758 mmHg 62%
    08:00 +17°C° 0 mm 4 m/s 758 mmHg 58%
    09:00 +17°C° 0 mm 5 m/s 758 mmHg 56%
    10:00 +17°C° 0 mm 6 m/s 758 mmHg 53%
    11:00 +18°C° 0 mm 7 m/s 758 mmHg 50%
    12:00 +18°C° 0 mm 7 m/s 758 mmHg 52%
    13:00 +18°C° 0 mm 8 m/s 758 mmHg 53%
    14:00 +17°C° 0 mm 8 m/s 758 mmHg 55%
    15:00 +17°C° 0 mm 8 m/s 758 mmHg 57%
    16:00 +17°C° 0 mm 8 m/s 758 mmHg 59%
    17:00 +16°C° 0 mm 7 m/s 758 mmHg 61%
    18:00 +15°C° 0 mm 7 m/s 758 mmHg 66%
    19:00 +14°C° 0 mm 6 m/s 758 mmHg 72%
    20:00 +13°C° 0 mm 6 m/s 758 mmHg 78%
    21:00 +13°C° 0 mm 5 m/s 758 mmHg 80%
    22:00 +13°C° 0 mm 5 m/s 758 mmHg 82%
    23:00 +13°C° 0 mm 5 m/s 758 mmHg 84%
    Voir plus